Regional Weather Roundup
Issued by NWS

Home | Current Version | Previous Version | Text Only | Print | Product List | Glossary Off
Versions: 1 2 3 4 5 6 7 8 9 10 11 12 13 14 15 16 17 18 19 20 21 22 23 24 25 26 27 28 29 30 31 32 33 34 35 36 37 38 39 40 41 42 43 44 45 46 47 48 49 50

000
ASUS43 KLSX 220407
RWRMO

WEATHER SUMMARY FOR MISSOURI
NATIONAL WEATHER SERVICE SPRINGFIELD MO
1100 PM CDT THU AUG 21 2014

NOTE: "FAIR" INDICATES FEW OR NO CLOUDS BELOW 12,000 FEET WITH NO
       SIGNIFICANT WEATHER AND/OR OBSTRUCTIONS TO VISIBILITY.
       CURRENT SKY AND/OR WEATHER CONDITIONS ARE NOT AVAILABLE FOR
       CHILLICOTHE AND FARMINGTON.

MOZ001>031-035>038-043-044-053-054-220500-
...NORTHERN AND WESTERN MISSOURI...

CITY           SKY/WX    TMP DP  RH WIND       PRES   REMARKS
KANSAS CTY INT CLEAR     85  72  65 S13       29.90S HX  91
KANSAS C DTWN  CLEAR     88  71  57 S12G26    29.89R HX  94
LEE`S SUMMIT   CLEAR     84  71  65 S13       29.94R
ST JOSEPH      PTCLDY    83  73  72 S9        29.87R
CHILLICOTHE      N/A     84  73  69 S8        29.91R HX  90
KIRKSVILLE     CLOUDY    79  75  87 S7        29.93R

$$
MOZ066>068-077>081-088>096-101>105-220500-
...SOUTHWEST MISSOURI...

CITY           SKY/WX    TMP DP  RH WIND       PRES   REMARKS
SPRINGFIELD    CLEAR     78  67  68 S9        30.02R
JOPLIN         CLEAR     82  70  66 S14       29.99R

$$
MOZ032>034-039>042-045>050-055>058-069>072-220500-
...CENTRAL MISSOURI...

CITY           SKY/WX    TMP DP  RH WIND       PRES   REMARKS
COLUMBIA       PTCLDY    80  74  81 S6        29.96R
JEFFERSON CITY PTCLDY    81  72  74 E5        29.94R
ROLLA          CLEAR     82  66  58 S12       29.98R
SEDALIA        CLEAR     82  69  64 SW8       29.96R
WHITEMAN AFB   PTCLDY    83  65  56 SW13      29.94R
OSAGE BEACH    CLEAR     82  66  57 S6        29.98R

$$
MOZ051-052-059>065-220500-
...EAST CENTRAL MISSOURI...

CITY           SKY/WX    TMP DP  RH WIND       PRES   REMARKS
ST LOUIS INTL  MOCLDY    87  75  67 S12       29.96R HX  96
SPIRIT OF STL  MOCLDY    83  74  74 S6        29.95R
ST CHARLES     PTCLDY    79  76  90 E5        29.94R

$$
MOZ072>076-082>087-097>100-106>115-220500-
...SOUTH CENTRAL AND SOUTHEAST MISSOURI...

CITY           SKY/WX    TMP DP  RH WIND       PRES   REMARKS
CAPE GIRARDEAU PTCLDY    80  74  81 S7        30.01R
FARMINGTON     PTCLDY    81  72  74 S8        30.03R
POPLAR BLUFF   MOCLDY    79  71  76 SW5       30.01R
WEST PLAINS    CLEAR     79  64  60 SW6       30.06R

$$


USA.gov is the U.S. government's official web portal to all federal, state and local government web resources and services.